UAE501 WIII-OEJN

Flight info

Callsign UAE501
Flight time N/A
Altitude 34000
Route RIMTI M766 ODIRU/N0493F360 M766 KAT P570 TVM UL425 ANODA/N0484F380 UL425 ASPUX L425 GOBRO DCT AMBIT L425 BOSUT
Aircraft A388/J-SADE2E3FGHIJ3J4J5M1RWXY/LB1D1

Departure

Time 2026-05-07 00:13
Airport Soekarno-Hatta International Airport (WIII)

Arrival

Time N/A
Airport King Abdulaziz International Airport (OEJN)
Time Latitude Longitude Altitude Speed Heading
2026-05-06 23:19 -6.12476 106.64977 36 ft 0 kts 55°
2026-05-06 23:54 -6.12482 106.64968 36 ft 4 kts 54°
2026-05-06 23:54 -6.12498 106.64946 33 ft 4 kts 54°
2026-05-06 23:54 -6.12514 106.64924 31 ft 4 kts 54°
2026-05-06 23:55 -6.12530 106.64902 33 ft 4 kts 58°
2026-05-06 23:55 -6.12543 106.64878 34 ft 4 kts 65°
2026-05-06 23:55 -6.12552 106.64853 36 ft 4 kts 74°
2026-05-06 23:55 -6.12556 106.64840 35 ft 1 kts 72°
2026-05-06 23:58 -6.12553 106.64850 36 ft 4 kts 71°
2026-05-06 23:59 -6.12551 106.64854 36 ft 0 kts 71°
2026-05-07 00:01 -6.12550 106.64858 36 ft 2 kts 70°
2026-05-07 00:02 -6.12546 106.64868 36 ft 0 kts 69°
2026-05-07 00:04 -6.12545 106.64874 36 ft 2 kts 90°
2026-05-07 00:04 -6.12551 106.64888 36 ft 3 kts 138°
2026-05-07 00:04 -6.12563 106.64893 36 ft 1 kts 186°
2026-05-07 00:04 -6.12570 106.64891 36 ft 2 kts 216°
2026-05-07 00:05 -6.12621 106.64833 36 ft 18 kts 241°
2026-05-07 00:05 -6.12673 106.64718 37 ft 18 kts 248°
2026-05-07 00:05 -6.12721 106.64603 37 ft 16 kts 230°
2026-05-07 00:05 -6.12814 106.64585 37 ft 14 kts 163°
2026-05-07 00:06 -6.12906 106.64618 37 ft 14 kts 158°
2026-05-07 00:06 -6.13001 106.64656 37 ft 15 kts 158°
2026-05-07 00:06 -6.13097 106.64695 37 ft 15 kts 158°
2026-05-07 00:06 -6.13196 106.64735 37 ft 16 kts 159°
2026-05-07 00:07 -6.13308 106.64780 36 ft 20 kts 157°
2026-05-07 00:07 -6.13430 106.64831 36 ft 21 kts 158°
2026-05-07 00:07 -6.13561 106.64882 36 ft 20 kts 159°
2026-05-07 00:07 -6.13686 106.64930 36 ft 19 kts 159°
2026-05-07 00:08 -6.13796 106.64954 36 ft 11 kts 212°
2026-05-07 00:08 -6.13843 106.64885 36 ft 13 kts 248°
2026-05-07 00:08 -6.13878 106.64798 36 ft 14 kts 248°
2026-05-07 00:08 -6.13915 106.64705 37 ft 15 kts 248°
2026-05-07 00:09 -6.13954 106.64607 37 ft 15 kts 248°
2026-05-07 00:09 -6.13994 106.64506 37 ft 16 kts 247°
2026-05-07 00:09 -6.14037 106.64402 38 ft 16 kts 247°
2026-05-07 00:09 -6.14093 106.64307 39 ft 14 kts 211°
2026-05-07 00:10 -6.14176 106.64316 39 ft 12 kts 135°
2026-05-07 00:10 -6.14206 106.64391 39 ft 13 kts 102°
2026-05-07 00:10 -6.14201 106.64482 37 ft 14 kts 69°
2026-05-07 00:10 -6.14196 106.64493 37 ft 0 kts 68°
2026-05-07 00:11 -6.14189 106.64510 37 ft 20 kts 68°
2026-05-07 00:11 -6.14179 106.64536 11 ft 31 kts 68°
2026-05-07 00:11 -6.14117 106.64694 34 ft 69 kts 69°
2026-05-07 00:12 -6.13860 106.65337 34 ft 134 kts 68°
2026-05-07 00:12 -6.13513 106.66206 32 ft 172 kts 68°
2026-05-07 00:12 -6.13273 106.66831 94 ft 183 kts 71°
2026-05-07 00:12 -6.12875 106.67841 470 ft 183 kts 69°
2026-05-07 00:13 -6.12448 106.68827 915 ft 177 kts 66°
2026-05-07 00:13 -6.11955 106.69933 1452 ft 175 kts 69°
2026-05-07 00:13 -6.11503 106.71095 1823 ft 193 kts 70°
2026-05-07 00:13 -6.11128 106.72444 2195 ft 212 kts 88°
2026-05-07 00:14 -6.11443 106.73945 2600 ft 232 kts 117°
2026-05-07 00:14 -6.12433 106.75097 2951 ft 252 kts 141°
2026-05-07 00:14 -6.13810 106.75940 3297 ft 271 kts 153°
2026-05-07 00:14 -6.15497 106.76482 3869 ft 278 kts 171°
2026-05-07 00:15 -6.16283 106.76503 4343 ft 274 kts 182°
2026-05-07 00:17 -6.16338 106.76499 4359 ft 273 kts 183°
2026-05-07 00:17 -6.17803 106.76080 5309 ft 265 kts 206°
2026-05-07 00:17 -6.19225 106.74961 6299 ft 261 kts 224°
2026-05-07 00:17 -6.20244 106.73458 6964 ft 264 kts 250°
2026-05-07 00:18 -6.20555 106.71652 7664 ft 264 kts 268°
2026-05-07 00:18 -6.20572 106.69794 8243 ft 268 kts 270°
2026-05-07 00:18 -6.20713 106.67937 8748 ft 275 kts 262°
2026-05-07 00:18 -6.21012 106.65975 9022 ft 290 kts 260°
2026-05-07 00:19 -6.21389 106.63948 9642 ft 292 kts 258°
2026-05-07 00:19 -6.21789 106.61963 10184 ft 295 kts 258°
2026-05-07 00:19 -6.22208 106.59934 10711 ft 298 kts 258°
2026-05-07 00:19 -6.22634 106.57883 11226 ft 301 kts 258°
2026-05-07 00:20 -6.23063 106.55815 11756 ft 304 kts 258°
2026-05-07 00:20 -6.23342 106.53703 12227 ft 308 kts 274°
2026-05-07 00:20 -6.22825 106.51625 12736 ft 309 kts 298°
2026-05-07 00:20 -6.21571 106.49871 13156 ft 314 kts 314°
2026-05-07 00:21 -6.20007 106.48264 13277 ft 329 kts 317°
2026-05-07 00:21 -6.18338 106.46616 13433 ft 343 kts 316°
2026-05-07 00:21 -6.16633 106.44864 13574 ft 358 kts 315°
2026-05-07 00:21 -6.14896 106.43007 13712 ft 372 kts 314°
2026-05-07 00:22 -6.13129 106.41072 14043 ft 377 kts 314°
2026-05-07 00:22 -6.11365 106.39119 14494 ft 379 kts 313°
2026-05-07 00:22 -6.09608 106.37170 14943 ft 381 kts 313°
2026-05-07 00:22 -6.07823 106.35192 15381 ft 384 kts 313°
2026-05-07 00:23 -6.06021 106.33199 15838 ft 386 kts 314°
2026-05-07 00:23 -6.04208 106.31197 16268 ft 389 kts 314°
2026-05-07 00:23 -6.02384 106.29185 16707 ft 391 kts 314°
2026-05-07 00:23 -6.00542 106.27153 17137 ft 394 kts 314°
2026-05-07 00:24 -5.98693 106.25114 17528 ft 396 kts 314°
2026-05-07 00:24 -5.96832 106.23061 17945 ft 399 kts 314°
2026-05-07 00:24 -5.94959 106.20994 18339 ft 401 kts 313°
2026-05-07 00:24 -5.93075 106.18916 18717 ft 403 kts 313°
2026-05-07 00:25 -5.91183 106.16830 19064 ft 405 kts 313°
2026-05-07 00:25 -5.89278 106.14728 19422 ft 407 kts 313°
2026-05-07 00:25 -5.88015 106.13336 19639 ft 408 kts 313°
2026-05-07 00:25 -5.86096 106.11220 19976 ft 410 kts 313°
2026-05-07 00:26 -5.83537 106.08398 20403 ft 414 kts 313°
2026-05-07 00:26 -5.81603 106.06264 20740 ft 415 kts 313°
2026-05-07 00:26 -5.79648 106.04105 21066 ft 417 kts 313°
2026-05-07 00:26 -5.77689 106.01941 21381 ft 420 kts 313°
2026-05-07 00:27 -5.75721 105.99769 21701 ft 422 kts 313°
2026-05-07 00:27 -5.74387 105.98296 21933 ft 422 kts 313°
2026-05-07 00:27 -5.72432 105.96138 22232 ft 424 kts 313°
2026-05-07 00:27 -5.70441 105.93941 22556 ft 426 kts 313°
2026-05-07 00:28 -5.68436 105.91729 22863 ft 428 kts 313°
2026-05-07 00:28 -5.66426 105.89511 23174 ft 430 kts 313°
2026-05-07 00:28 -5.64405 105.87282 23468 ft 432 kts 313°
2026-05-07 00:28 -5.62374 105.85042 23739 ft 434 kts 313°
2026-05-07 00:29 -5.60338 105.82797 23983 ft 435 kts 313°
2026-05-07 00:29 -5.58294 105.80542 24226 ft 437 kts 313°
2026-05-07 00:30 -5.52137 105.73754 24990 ft 441 kts 313°
2026-05-07 00:30 -5.50086 105.71493 25237 ft 443 kts 313°
2026-05-07 00:30 -5.48005 105.69199 25434 ft 446 kts 313°
2026-05-07 00:30 -5.45940 105.66923 25688 ft 447 kts 313°
2026-05-07 00:31 -5.43939 105.64562 25934 ft 449 kts 307°
2026-05-07 00:31 -5.42249 105.61951 26203 ft 451 kts 300°
2026-05-07 00:31 -5.40898 105.59125 26436 ft 454 kts 292°
2026-05-07 00:31 -5.39803 105.56152 26683 ft 456 kts 291°
2026-05-07 00:32 -5.38698 105.53173 26946 ft 457 kts 291°
2026-05-07 00:32 -5.37584 105.50202 27210 ft 459 kts 291°
2026-05-07 00:32 -5.36472 105.47246 27466 ft 461 kts 291°
2026-05-07 00:32 -5.35344 105.44244 27730 ft 463 kts 291°
2026-05-07 00:33 -5.34214 105.41232 27998 ft 465 kts 291°
2026-05-07 00:33 -5.33072 105.38186 28282 ft 467 kts 291°
2026-05-07 00:33 -5.31925 105.35128 28560 ft 469 kts 291°
2026-05-07 00:33 -5.30775 105.32061 28846 ft 471 kts 291°
2026-05-07 00:34 -5.29619 105.28981 29138 ft 473 kts 291°
2026-05-07 00:34 -5.28459 105.25888 29445 ft 475 kts 291°
2026-05-07 00:34 -5.27292 105.22778 29764 ft 478 kts 291°
2026-05-07 00:34 -5.26104 105.19646 30049 ft 480 kts 293°
2026-05-07 00:35 -5.24696 105.16619 30356 ft 480 kts 296°
2026-05-07 00:35 -5.23231 105.13599 30680 ft 481 kts 296°
2026-05-07 00:35 -5.21773 105.10569 31001 ft 483 kts 296°
2026-05-07 00:35 -5.20311 105.07523 31321 ft 484 kts 296°
2026-05-07 00:36 -5.18846 105.04471 31651 ft 486 kts 296°
2026-05-07 00:36 -5.17377 105.01412 31963 ft 487 kts 296°
2026-05-07 00:36 -5.15903 104.98345 32321 ft 489 kts 296°
2026-05-07 00:36 -5.14438 104.95298 32599 ft 491 kts 296°
2026-05-07 00:37 -5.12955 104.92213 32789 ft 495 kts 296°
2026-05-07 00:37 -5.11449 104.89082 33160 ft 496 kts 296°
2026-05-07 00:37 -5.09952 104.85971 33491 ft 497 kts 296°
2026-05-07 00:37 -5.08443 104.82835 33781 ft 499 kts 296°
2026-05-07 00:38 -5.06933 104.79698 34081 ft 500 kts 296°
2026-05-07 00:38 -5.05420 104.76555 34354 ft 501 kts 296°
2026-05-07 00:38 -5.03905 104.73406 34615 ft 503 kts 296°
2026-05-07 00:38 -5.02403 104.70285 34916 ft 503 kts 296°
2026-05-07 00:39 -5.00866 104.67095 35356 ft 500 kts 296°
2026-05-07 00:39 -4.99363 104.63974 35813 ft 497 kts 295°
2026-05-07 00:39 -4.97861 104.60855 36231 ft 494 kts 295°
2026-05-07 00:39 -4.96387 104.57796 36633 ft 492 kts 295°
2026-05-07 00:40 -4.94899 104.54709 37061 ft 490 kts 295°
2026-05-07 00:40 -4.93420 104.51638 37382 ft 489 kts 295°
2026-05-07 00:40 -4.91922 104.48529 37723 ft 488 kts 295°
2026-05-07 00:40 -4.90458 104.45499 37934 ft 490 kts 295°
2026-05-07 00:41 -4.87462 104.39395 37946 ft 483 kts 295°
2026-05-07 00:41 -4.84481 104.33330 37941 ft 485 kts 295°
2026-05-07 00:42 -4.81519 104.27293 37946 ft 485 kts 295°
2026-05-07 00:42 -4.78540 104.21218 37947 ft 484 kts 296°
2026-05-07 00:43 -4.75583 104.15194 37948 ft 481 kts 296°
2026-05-07 00:43 -4.72627 104.09172 37938 ft 482 kts 296°
2026-05-07 00:44 -4.69667 104.03142 37944 ft 482 kts 296°
2026-05-07 00:44 -4.66707 103.97114 37945 ft 482 kts 296°
2026-05-07 00:45 -4.63749 103.91093 37949 ft 482 kts 296°
2026-05-07 00:45 -4.60806 103.85103 37950 ft 482 kts 296°
2026-05-07 00:46 -4.57844 103.79076 37952 ft 482 kts 296°
2026-05-07 00:46 -4.54873 103.73032 37963 ft 482 kts 296°
2026-05-07 00:47 -4.51906 103.66998 37959 ft 482 kts 296°
2026-05-07 00:47 -4.48954 103.60998 37963 ft 482 kts 296°
2026-05-07 00:48 -4.45986 103.54963 37962 ft 482 kts 296°
2026-05-07 00:48 -4.43009 103.48912 37969 ft 485 kts 296°
2026-05-07 00:49 -4.40005 103.42811 37968 ft 489 kts 296°
2026-05-07 00:49 -4.36998 103.36704 37969 ft 488 kts 296°
2026-05-07 00:50 -4.33991 103.30598 37964 ft 488 kts 296°
2026-05-07 00:50 -4.30979 103.24481 37962 ft 488 kts 296°
2026-05-07 00:51 -4.27987 103.18410 37960 ft 489 kts 296°
2026-05-07 00:51 -4.24976 103.12299 37960 ft 489 kts 296°
2026-05-07 00:52 -4.21959 103.06178 37961 ft 491 kts 296°
2026-05-07 00:52 -4.18933 103.00040 37941 ft 490 kts 296°
2026-05-07 00:53 -4.15910 102.93909 37949 ft 490 kts 296°
2026-05-07 00:53 -4.12888 102.87784 37933 ft 490 kts 296°
2026-05-07 00:54 -4.09865 102.81656 37936 ft 490 kts 296°
2026-05-07 00:54 -4.06862 102.75570 37918 ft 489 kts 296°
2026-05-07 00:55 -4.03863 102.69497 37919 ft 486 kts 296°
2026-05-07 00:55 -4.00863 102.63419 37927 ft 487 kts 296°
2026-05-07 00:56 -3.97852 102.57321 37913 ft 487 kts 296°
2026-05-07 00:56 -3.94846 102.51234 37915 ft 488 kts 296°
2026-05-07 00:57 -3.91839 102.45148 37902 ft 487 kts 296°
2026-05-07 00:57 -3.88826 102.39052 37900 ft 489 kts 296°
2026-05-07 00:58 -3.85811 102.32950 37900 ft 489 kts 296°
2026-05-07 00:58 -3.82786 102.26849 37900 ft 489 kts 296°
2026-05-07 00:59 -3.78242 102.17687 37892 ft 489 kts 296°
2026-05-07 01:00 -3.75215 102.11585 37895 ft 489 kts 296°
2026-05-07 01:00 -3.72208 102.05522 37902 ft 489 kts 296°
2026-05-07 01:01 -3.69157 101.99374 37893 ft 490 kts 296°
2026-05-07 01:01 -3.66148 101.93309 37892 ft 490 kts 296°
2026-05-07 01:02 -3.63117 101.87202 37889 ft 490 kts 296°
2026-05-07 01:02 -3.60081 101.81087 37889 ft 490 kts 296°
2026-05-07 01:03 -3.57049 101.74980 37886 ft 490 kts 296°
2026-05-07 01:03 -3.54014 101.68869 37887 ft 490 kts 296°
2026-05-07 01:04 -3.50965 101.62731 37886 ft 494 kts 296°
2026-05-07 01:04 -3.47904 101.56571 37883 ft 494 kts 296°
2026-05-07 01:05 -3.44861 101.50448 37885 ft 494 kts 296°
2026-05-07 01:05 -3.41798 101.44285 37886 ft 495 kts 296°
2026-05-07 01:06 -3.38734 101.38121 37883 ft 494 kts 296°
2026-05-07 01:06 -3.35678 101.31976 37884 ft 494 kts 296°
2026-05-07 01:07 -3.32604 101.25794 37883 ft 497 kts 296°
2026-05-07 01:07 -3.29525 101.19605 37883 ft 496 kts 296°
2026-05-07 01:08 -3.26451 101.13426 37881 ft 497 kts 296°
2026-05-07 01:08 -3.23371 101.07238 37881 ft 497 kts 296°
2026-05-07 01:09 -3.20291 101.01049 37881 ft 496 kts 296°
2026-05-07 01:09 -3.17213 100.94866 37880 ft 496 kts 296°
2026-05-07 01:10 -3.14131 100.88675 37877 ft 497 kts 296°
2026-05-07 01:10 -3.11067 100.82521 37877 ft 496 kts 296°
2026-05-07 01:11 -3.07989 100.76342 37880 ft 496 kts 296°
2026-05-07 01:11 -3.05404 100.71151 37884 ft 496 kts 296°
2026-05-07 01:12 -3.01822 100.63963 37880 ft 496 kts 296°
2026-05-07 01:12 -2.99262 100.58824 37883 ft 497 kts 296°
2026-05-07 01:13 -2.96170 100.52620 37880 ft 498 kts 297°
2026-05-07 01:13 -2.93080 100.46421 37879 ft 498 kts 297°
2026-05-07 01:14 -2.89486 100.39212 37880 ft 498 kts 297°
2026-05-07 01:14 -2.86894 100.34014 37879 ft 498 kts 297°
2026-05-07 01:15 -2.83804 100.27818 37879 ft 498 kts 297°
2026-05-07 01:15 -2.80730 100.21655 37883 ft 498 kts 297°
2026-05-07 01:16 -2.77645 100.15473 37885 ft 496 kts 296°
2026-05-07 01:16 -2.74561 100.09289 37882 ft 496 kts 296°
2026-05-07 01:17 -2.71477 100.03110 37878 ft 496 kts 296°
2026-05-07 01:17 -2.68393 99.96930 37879 ft 496 kts 296°
2026-05-07 01:18 -2.65326 99.90786 37878 ft 496 kts 296°
2026-05-07 01:18 -2.62242 99.84610 37879 ft 498 kts 296°
2026-05-07 01:19 -2.59137 99.78391 37882 ft 500 kts 296°
2026-05-07 01:19 -2.56022 99.72153 37881 ft 500 kts 296°
2026-05-07 01:20 -2.52917 99.65935 37879 ft 500 kts 296°
2026-05-07 01:20 -2.49810 99.59716 37881 ft 500 kts 296°
2026-05-07 01:21 -2.46714 99.53491 37883 ft 500 kts 295°
2026-05-07 01:21 -2.43751 99.47192 37881 ft 500 kts 294°
2026-05-07 01:22 -2.40809 99.40906 37881 ft 499 kts 295°
2026-05-07 01:22 -2.37859 99.34653 37880 ft 499 kts 295°
2026-05-07 01:23 -2.34893 99.28378 37877 ft 499 kts 295°
2026-05-07 01:23 -2.31924 99.22095 37881 ft 500 kts 295°
2026-05-07 01:24 -2.28956 99.15815 37881 ft 499 kts 295°
2026-05-07 01:24 -2.25987 99.09534 37878 ft 499 kts 295°
2026-05-07 01:25 -2.23019 99.03255 37880 ft 499 kts 296°
2026-05-07 01:25 -2.20055 98.96988 37883 ft 500 kts 296°
2026-05-07 01:26 -2.17086 98.90711 37884 ft 497 kts 295°
2026-05-07 01:26 -2.14127 98.84454 37887 ft 499 kts 295°
2026-05-07 01:27 -2.11157 98.78175 37884 ft 500 kts 295°
2026-05-07 01:27 -2.08203 98.71930 37884 ft 500 kts 295°
2026-05-07 01:28 -2.05233 98.65651 37887 ft 500 kts 296°
2026-05-07 01:28 -2.02263 98.59377 37888 ft 497 kts 296°
2026-05-07 01:29 -1.99297 98.53110 37884 ft 499 kts 296°
2026-05-07 01:29 -1.96335 98.46852 37887 ft 496 kts 296°
2026-05-07 01:30 -1.93382 98.40611 37889 ft 499 kts 296°
2026-05-07 01:30 -1.90409 98.34331 37884 ft 498 kts 296°
2026-05-07 01:31 -1.87440 98.28061 37884 ft 501 kts 296°
2026-05-07 01:31 -1.84462 98.21771 37885 ft 500 kts 296°
2026-05-07 01:32 -1.81508 98.15535 37888 ft 499 kts 296°
2026-05-07 01:32 -1.78532 98.09251 37886 ft 499 kts 296°
2026-05-07 01:33 -1.75564 98.02986 37883 ft 499 kts 296°
2026-05-07 01:33 -1.72585 97.96695 37892 ft 501 kts 296°
2026-05-07 01:34 -1.69605 97.90406 37886 ft 501 kts 296°
2026-05-07 01:34 -1.66624 97.84113 37887 ft 501 kts 296°
2026-05-07 01:35 -1.63641 97.77818 37885 ft 501 kts 296°
2026-05-07 01:35 -1.60655 97.71518 37882 ft 501 kts 296°
2026-05-07 01:36 -1.57672 97.65269 37884 ft 501 kts 296°
2026-05-07 01:36 -1.54607 97.59017 37892 ft 500 kts 297°
2026-05-07 01:37 -1.51546 97.52762 37886 ft 501 kts 297°
2026-05-07 01:37 -1.48489 97.46498 37886 ft 501 kts 297°
2026-05-07 01:38 -1.45430 97.40227 37884 ft 501 kts 297°
2026-05-07 01:38 -1.42376 97.33968 37886 ft 501 kts 297°
2026-05-07 01:39 -1.39320 97.27704 37888 ft 501 kts 297°
2026-05-07 01:39 -1.36263 97.21438 37886 ft 501 kts 297°
2026-05-07 01:40 -1.33203 97.15169 37885 ft 502 kts 296°
2026-05-07 01:40 -1.30147 97.08907 37884 ft 502 kts 296°
2026-05-07 01:41 -1.27085 97.02633 37886 ft 502 kts 297°
2026-05-07 01:41 -1.24024 96.96362 37884 ft 502 kts 297°
2026-05-07 01:42 -1.20981 96.90128 37882 ft 502 kts 297°
2026-05-07 01:42 -1.17922 96.83862 37890 ft 502 kts 297°
2026-05-07 01:43 -1.14858 96.77584 37884 ft 502 kts 297°
2026-05-07 01:43 -1.11795 96.71310 37883 ft 502 kts 297°
2026-05-07 01:44 -1.08728 96.65030 37885 ft 502 kts 297°
2026-05-07 01:44 -1.05665 96.58759 37884 ft 502 kts 297°
2026-05-07 01:45 -1.02599 96.52481 37882 ft 503 kts 297°
2026-05-07 01:45 -0.99535 96.46207 37890 ft 503 kts 297°
2026-05-07 01:46 -0.96464 96.39919 37883 ft 503 kts 297°
2026-05-07 01:46 -0.93414 96.33673 37884 ft 503 kts 297°
2026-05-07 01:47 -0.90344 96.27389 37884 ft 503 kts 297°
2026-05-07 01:47 -0.87273 96.21101 37881 ft 503 kts 297°
2026-05-07 01:48 -0.84203 96.14816 37881 ft 503 kts 297°
2026-05-07 01:48 -0.81133 96.08532 37882 ft 503 kts 297°
2026-05-07 01:49 -0.78054 96.02231 37880 ft 505 kts 297°
2026-05-07 01:49 -0.74975 95.95928 37878 ft 505 kts 297°
2026-05-07 01:50 -0.71887 95.89608 37880 ft 506 kts 297°
2026-05-07 01:50 -0.68801 95.83293 37881 ft 506 kts 297°
2026-05-07 01:51 -0.65714 95.76975 37881 ft 505 kts 297°
2026-05-07 01:51 -0.62646 95.70696 37884 ft 506 kts 297°
2026-05-07 01:52 -0.59556 95.64373 37881 ft 506 kts 297°
2026-05-07 01:52 -0.56464 95.58045 37881 ft 506 kts 297°
2026-05-07 01:53 -0.53375 95.51725 37880 ft 506 kts 297°
2026-05-07 01:53 -0.50284 95.45398 37881 ft 506 kts 297°
2026-05-07 01:54 -0.47194 95.39076 37882 ft 506 kts 297°
2026-05-07 01:54 -0.44100 95.32747 37881 ft 506 kts 297°
2026-05-07 01:55 -0.41001 95.26405 37883 ft 508 kts 297°
2026-05-07 01:55 -0.37904 95.20069 37884 ft 508 kts 297°
2026-05-07 01:56 -0.34810 95.13739 37884 ft 506 kts 297°
2026-05-07 01:56 -0.31721 95.07419 37884 ft 506 kts 297°
2026-05-07 01:57 -0.28629 95.01093 37883 ft 506 kts 297°
2026-05-07 01:57 -0.25537 94.94767 37884 ft 506 kts 297°
2026-05-07 01:58 -0.22444 94.88441 37884 ft 506 kts 297°
2026-05-07 01:58 -0.19876 94.83187 37881 ft 506 kts 297°
2026-05-07 01:59 -0.16287 94.75844 37880 ft 506 kts 297°
2026-05-07 01:59 -0.13197 94.69522 37884 ft 506 kts 297°
2026-05-07 02:00 -0.10628 94.64267 37883 ft 506 kts 297°
2026-05-07 02:00 -0.07538 94.57945 37886 ft 506 kts 297°
2026-05-07 02:01 -0.05471 94.53717 37885 ft 505 kts 297°
2026-05-07 02:02 0.00440 94.41625 37887 ft 505 kts 297°
2026-05-07 02:03 0.03520 94.35323 37881 ft 504 kts 297°
2026-05-07 02:03 0.06600 94.29023 37881 ft 504 kts 297°
2026-05-07 02:04 0.09680 94.22722 37878 ft 504 kts 297°
2026-05-07 02:04 0.12742 94.16459 37878 ft 505 kts 297°
2026-05-07 02:05 0.15684 94.10440 37873 ft 505 kts 297°
2026-05-07 02:05 0.18245 94.05199 37875 ft 505 kts 297°
2026-05-07 02:06 0.21311 93.98928 37881 ft 505 kts 297°
2026-05-07 02:06 0.24393 93.92623 37878 ft 505 kts 297°
2026-05-07 02:07 0.27474 93.86320 37876 ft 505 kts 297°
2026-05-07 02:07 0.32097 93.76861 37874 ft 505 kts 297°
2026-05-07 02:08 0.35174 93.70565 37872 ft 504 kts 297°
2026-05-07 02:08 0.38248 93.64272 37873 ft 504 kts 297°
2026-05-07 02:09 0.41327 93.57958 37873 ft 505 kts 297°
2026-05-07 02:09 0.44399 93.51658 37873 ft 505 kts 297°
2026-05-07 02:10 0.47457 93.45389 37873 ft 504 kts 297°
2026-05-07 02:10 0.50530 93.39088 37873 ft 504 kts 297°
2026-05-07 02:11 0.53599 93.32796 37870 ft 505 kts 297°
2026-05-07 02:11 0.56674 93.26491 37870 ft 504 kts 297°
2026-05-07 02:12 0.59753 93.20179 37870 ft 504 kts 297°
2026-05-07 02:12 0.62832 93.13865 37867 ft 504 kts 297°
2026-05-07 02:13 0.65906 93.07561 37867 ft 504 kts 297°
2026-05-07 02:13 0.68970 93.01281 37867 ft 507 kts 297°
2026-05-07 02:14 0.72077 92.94908 37870 ft 507 kts 297°
2026-05-07 02:14 0.75149 92.88608 37870 ft 507 kts 297°
2026-05-07 02:15 0.78238 92.82273 37870 ft 505 kts 297°
2026-05-07 02:15 0.81320 92.75950 37869 ft 506 kts 297°
2026-05-07 02:16 0.84386 92.69663 37867 ft 506 kts 297°
2026-05-07 02:16 0.87465 92.63345 37867 ft 506 kts 297°
2026-05-07 02:17 0.90549 92.57019 37867 ft 506 kts 297°
2026-05-07 02:17 0.93633 92.50694 37865 ft 506 kts 297°
2026-05-07 02:18 0.96699 92.44404 37867 ft 506 kts 297°
2026-05-07 02:18 0.99780 92.38083 37864 ft 506 kts 297°
2026-05-07 02:19 1.02861 92.31762 37865 ft 506 kts 297°
2026-05-07 02:19 1.05940 92.25444 37864 ft 504 kts 297°
2026-05-07 02:20 1.09012 92.19140 37864 ft 504 kts 297°
2026-05-07 02:20 1.12084 92.12836 37865 ft 504 kts 297°
2026-05-07 02:21 1.15157 92.06529 37864 ft 506 kts 297°
2026-05-07 02:21 1.18236 92.00211 37865 ft 509 kts 297°
2026-05-07 02:22 1.21369 91.93871 37862 ft 509 kts 298°
2026-05-07 02:22 1.24529 91.87542 37861 ft 507 kts 297°
2026-05-07 02:23 1.27665 91.81243 37862 ft 505 kts 297°
2026-05-07 02:23 1.30792 91.74954 37862 ft 505 kts 297°
2026-05-07 02:24 1.33910 91.68682 37861 ft 506 kts 297°
2026-05-07 02:24 1.37037 91.62390 37862 ft 506 kts 297°
2026-05-07 02:25 1.40166 91.56095 37862 ft 506 kts 297°
2026-05-07 02:25 1.43288 91.49813 37861 ft 508 kts 297°
2026-05-07 02:26 1.46432 91.43488 37862 ft 508 kts 297°
2026-05-07 02:26 1.49580 91.37154 37862 ft 508 kts 297°
2026-05-07 02:27 1.52721 91.30832 37862 ft 508 kts 297°
2026-05-07 02:27 1.55878 91.24480 37862 ft 511 kts 297°
2026-05-07 02:28 1.59044 91.18107 37862 ft 511 kts 297°
2026-05-07 02:28 1.62205 91.11743 37862 ft 511 kts 297°
2026-05-07 02:29 1.65348 91.05416 37862 ft 511 kts 297°
2026-05-07 02:29 1.68511 90.99047 37862 ft 511 kts 297°
2026-05-07 02:30 1.71671 90.92682 37862 ft 511 kts 297°
2026-05-07 02:30 1.74832 90.86318 37862 ft 511 kts 297°
2026-05-07 02:31 1.77995 90.79947 37862 ft 511 kts 297°
2026-05-07 02:31 1.81152 90.73588 37861 ft 511 kts 297°
2026-05-07 02:32 1.84313 90.67219 37862 ft 511 kts 297°
2026-05-07 02:32 1.87430 90.60941 37862 ft 511 kts 297°
2026-05-07 02:33 1.90586 90.54582 37861 ft 511 kts 297°
2026-05-07 02:33 1.93743 90.48220 37862 ft 510 kts 297°
2026-05-07 02:34 1.96898 90.41861 37859 ft 510 kts 298°
2026-05-07 02:34 2.00058 90.35493 37861 ft 511 kts 297°
2026-05-07 02:35 2.03220 90.29118 37859 ft 511 kts 297°
2026-05-07 02:35 2.06359 90.22789 37859 ft 511 kts 297°
2026-05-07 02:36 2.09519 90.16418 37859 ft 511 kts 297°
2026-05-07 02:36 2.12674 90.10056 37859 ft 511 kts 297°
2026-05-07 02:37 2.15836 90.03678 37862 ft 511 kts 297°
2026-05-07 02:37 2.18994 89.97310 37860 ft 513 kts 297°
2026-05-07 02:38 2.22166 89.90910 37859 ft 513 kts 297°
2026-05-07 02:38 2.25319 89.84549 37859 ft 513 kts 297°
2026-05-07 02:39 2.28483 89.78165 37859 ft 513 kts 297°
2026-05-07 02:39 2.31649 89.71767 37859 ft 512 kts 297°
2026-05-07 02:40 2.34805 89.65386 37859 ft 512 kts 297°
2026-05-07 02:40 2.37949 89.59030 37859 ft 512 kts 297°
2026-05-07 02:41 2.41106 89.52647 37859 ft 512 kts 297°
2026-05-07 02:41 2.44260 89.46267 37859 ft 512 kts 297°
2026-05-07 02:42 2.47418 89.39880 37859 ft 512 kts 297°
2026-05-07 02:42 2.50577 89.33489 37859 ft 512 kts 297°
2026-05-07 02:43 2.53733 89.27104 37859 ft 512 kts 297°
2026-05-07 02:43 2.56359 89.21792 37860 ft 514 kts 297°
2026-05-07 02:44 2.59525 89.15385 37859 ft 514 kts 297°
2026-05-07 02:44 2.62688 89.08981 37859 ft 514 kts 297°
2026-05-07 02:45 2.65855 89.02570 37862 ft 514 kts 297°
2026-05-07 02:45 2.69019 88.96166 37862 ft 512 kts 297°
2026-05-07 02:46 2.72171 88.89782 37859 ft 512 kts 297°
2026-05-07 02:46 2.75330 88.83385 37859 ft 513 kts 297°
2026-05-07 02:47 2.78468 88.77029 37859 ft 513 kts 297°
2026-05-07 02:47 2.81631 88.70618 37859 ft 513 kts 297°
2026-05-07 02:48 2.84786 88.64225 37859 ft 513 kts 297°
2026-05-07 02:48 2.87947 88.57820 37859 ft 513 kts 297°
2026-05-07 02:49 2.91084 88.51460 37859 ft 513 kts 297°
2026-05-07 02:49 2.94247 88.45065 37858 ft 511 kts 298°